Location: Unspecified
(52.0000°N, 4.4000°E)
Time: 20:15:27
(UTC+00:00)

ALOS 2 - Pass Details

Date: 14 May 2025
Orbit: 630 x 632 km, 97.9° (Epoch: 20 June)

Event Time Altitude Azimuth Distance (km) Brightness Sun altitude
Exits shadow 22:10:38 21° 115° (ESE) 1,424 4.0 -16.6°
Maximum altitude 22:12:51 34° 65° (ENE) 1,048 3.7 -16.7°
Drops below altitude 10° 22:16:50 10° 1° (N) 2,030 6.3 -16.9°
Sets 22:19:11 0° 352° (N) 2,942 7.6 -17.0°
